Hourly Weather Barlogi

Today, 25 September, Friday

Time Temperature Precipitation Wind Pressure Humidity
00:00 +17°C° 0 mm 2 mps 741 mmHg 78%
01:00 +17°C° 0 mm 2 mps 741 mmHg 81%
02:00 +16°C° 0 mm 2 mps 741 mmHg 83%
03:00 +16°C° 0 mm 3 mps 741 mmHg 85%
04:00 +14°C° 0 mm 3 mps 740 mmHg 87%
05:00 +16°C° 0 mm 3 mps 740 mmHg 84%
06:00 +17°C° 0 mm 4 mps 740 mmHg 81%
07:00 +16°C° 0 mm 5 mps 739 mmHg 78%
08:00 +19°C° 0 mm 5 mps 739 mmHg 71%
09:00 +21°C° 0 mm 6 mps 739 mmHg 64%
10:00 +23°C° 0 mm 7 mps 739 mmHg 57%
11:00 +24°C° 0 mm 7 mps 738 mmHg 54%
12:00 +26°C° 0 mm 7 mps 738 mmHg 51%
13:00 +27°C° 0 mm 7 mps 737 mmHg 48%
14:00 +26°C° 0.2 mm 6 mps 737 mmHg 51%
15:00 +25°C° 0.2 mm 5 mps 736 mmHg 54%
16:00 +25°C° 0.2 mm 4 mps 736 mmHg 57%
17:00 +22°C° 0.8 mm 4 mps 736 mmHg 65%
18:00 +21°C° 0.8 mm 4 mps 736 mmHg 72%
19:00 +19°C° 0.8 mm 4 mps 736 mmHg 80%
20:00 +19°C° 0.2 mm 5 mps 736 mmHg 79%
21:00 +19°C° 0.2 mm 5 mps 736 mmHg 77%
22:00 +19°C° 0.2 mm 5 mps 736 mmHg 76%
23:00 +19°C° 0 mm 5 mps 735 mmHg 77%

Tomorrow, 26 September, Saturday

Time Temperature Precipitation Wind Pressure Humidity
00:00 +18°C° 0 mm 4 mps 735 mmHg 78%
01:00 +18°C° 0 mm 4 mps 734 mmHg 79%
02:00 +18°C° 0 mm 4 mps 734 mmHg 79%
03:00 +18°C° 0 mm 4 mps 734 mmHg 78%
04:00 +17°C° 0 mm 5 mps 733 mmHg 78%
05:00 +17°C° 0 mm 5 mps 733 mmHg 76%
06:00 +17°C° 0 mm 5 mps 733 mmHg 74%
07:00 +17°C° 0 mm 6 mps 732 mmHg 72%
08:00 +19°C° 0 mm 5 mps 732 mmHg 70%
09:00 +20°C° 0 mm 5 mps 733 mmHg 69%
10:00 +20°C° 0 mm 5 mps 733 mmHg 67%
11:00 +20°C° 0.5 mm 5 mps 733 mmHg 72%
12:00 +19°C° 0.5 mm 5 mps 733 mmHg 78%
13:00 +19°C° 0.5 mm 5 mps 733 mmHg 84%
14:00 +18°C° 0.7 mm 4 mps 733 mmHg 86%
15:00 +18°C° 0.7 mm 3 mps 733 mmHg 88%
16:00 +18°C° 0.7 mm 3 mps 733 mmHg 90%
17:00 +17°C° 4.5 mm 3 mps 733 mmHg 92%
18:00 +16°C° 4.5 mm 2 mps 733 mmHg 94%
19:00 +15°C° 4.5 mm 2 mps 733 mmHg 96%
20:00 +14°C° 5.6 mm 3 mps 733 mmHg 96%
21:00 +14°C° 5.6 mm 3 mps 733 mmHg 97%
22:00 +14°C° 5.6 mm 4 mps 733 mmHg 97%
23:00 +13°C° 2.7 mm 5 mps 733 mmHg 96%

Day after tomorrow, 27 September, Sunday

Time Temperature Precipitation Wind Pressure Humidity
00:00 +13°C° 2.7 mm 5 mps 733 mmHg 95%
01:00 +11°C° 2.7 mm 6 mps 732 mmHg 94%
02:00 +11°C° 2.2 mm 6 mps 732 mmHg 94%
03:00 +10°C° 2.2 mm 7 mps 732 mmHg 93%
04:00 +9°C° 2.2 mm 7 mps 732 mmHg 93%
05:00 +9°C° 1.5 mm 7 mps 732 mmHg 92%
06:00 +9°C° 1.5 mm 7 mps 733 mmHg 92%
07:00 +8°C° 1.5 mm 7 mps 733 mmHg 91%
08:00 +7°C° 2.6 mm 8 mps 733 mmHg 91%
09:00 +7°C° 2.6 mm 8 mps 734 mmHg 91%
10:00 +6°C° 2.6 mm 8 mps 734 mmHg 91%
11:00 +7°C° 0.5 mm 8 mps 735 mmHg 89%
12:00 +8°C° 0.5 mm 7 mps 736 mmHg 87%
13:00 +8°C° 0.5 mm 7 mps 736 mmHg 86%
14:00 +9°C° 0.4 mm 5 mps 737 mmHg 84%
15:00 +10°C° 0.4 mm 4 mps 738 mmHg 83%
16:00 +11°C° 0.4 mm 3 mps 738 mmHg 82%
17:00 +10°C° 0.1 mm 3 mps 739 mmHg 82%
18:00 +10°C° 0.1 mm 3 mps 740 mmHg 82%
19:00 +10°C° 0.1 mm 3 mps 741 mmHg 82%
20:00 +10°C° 0 mm 3 mps 742 mmHg 83%
21:00 +9°C° 0 mm 3 mps 742 mmHg 84%
22:00 +9°C° 0 mm 3 mps 743 mmHg 84%
23:00 +9°C° 0 mm 3 mps 743 mmHg 84%

28 September, Monday

Time Temperature Precipitation Wind Pressure Humidity
00:00 +9°C° 0 mm 3 mps 743 mmHg 84%
01:00 +8°C° 0 mm 3 mps 744 mmHg 84%
02:00 +8°C° 0 mm 3 mps 744 mmHg 84%
03:00 +8°C° 0 mm 3 mps 744 mmHg 83%
04:00 +7°C° 0 mm 3 mps 744 mmHg 83%
05:00 +8°C° 0 mm 3 mps 745 mmHg 81%
06:00 +8°C° 0 mm 3 mps 745 mmHg 80%
07:00 +9°C° 0 mm 3 mps 745 mmHg 79%
08:00 +10°C° 0 mm 3 mps 745 mmHg 74%
09:00 +12°C° 0 mm 4 mps 745 mmHg 69%
10:00 +13°C° 0 mm 4 mps 746 mmHg 65%
11:00 +14°C° 0 mm 4 mps 745 mmHg 61%
12:00 +15°C° 0 mm 4 mps 745 mmHg 58%
13:00 +17°C° 0 mm 4 mps 745 mmHg 55%
14:00 +17°C° 0 mm 4 mps 745 mmHg 59%
15:00 +16°C° 0 mm 3 mps 744 mmHg 62%
16:00 +16°C° 0 mm 3 mps 744 mmHg 66%
17:00 +14°C° 0 mm 3 mps 744 mmHg 71%
18:00 +13°C° 0 mm 3 mps 744 mmHg 77%
19:00 +12°C° 0 mm 3 mps 744 mmHg 82%
20:00 +11°C° 0 mm 3 mps 744 mmHg 84%
21:00 +11°C° 0 mm 3 mps 744 mmHg 86%
22:00 +11°C° 0 mm 3 mps 744 mmHg 88%
23:00 +11°C° 0 mm 3 mps 743 mmHg 89%

29 September, Tuesday

Time Temperature Precipitation Wind Pressure Humidity
00:00 +11°C° 0 mm 3 mps 743 mmHg 90%
01:00 +10°C° 0 mm 3 mps 743 mmHg 90%
02:00 +10°C° 0 mm 3 mps 743 mmHg 90%
03:00 +10°C° 0 mm 2 mps 742 mmHg 90%
04:00 +10°C° 0 mm 2 mps 742 mmHg 89%
05:00 +10°C° 0 mm 2 mps 742 mmHg 88%
06:00 +10°C° 0 mm 2 mps 742 mmHg 87%
07:00 +12°C° 0 mm 2 mps 742 mmHg 86%
08:00 +12°C° 0 mm 1 mps 742 mmHg 83%
09:00 +13°C° 0 mm 1 mps 742 mmHg 81%
10:00 +13°C° 0 mm 1 mps 742 mmHg 78%
11:00 +14°C° 0.1 mm 1 mps 742 mmHg 77%
12:00 +14°C° 0.1 mm 2 mps 742 mmHg 77%
13:00 +14°C° 0.1 mm 2 mps 742 mmHg 76%
14:00 +13°C° 0.1 mm 3 mps 742 mmHg 77%
15:00 +13°C° 0.1 mm 3 mps 742 mmHg 78%
16:00 +13°C° 0.1 mm 4 mps 742 mmHg 80%
17:00 +12°C° 0.1 mm 4 mps 742 mmHg 82%
18:00 +12°C° 0.1 mm 4 mps 743 mmHg 84%
19:00 +11°C° 0.1 mm 4 mps 743 mmHg 86%
20:00 +11°C° 0.3 mm 4 mps 743 mmHg 87%
21:00 +11°C° 0.3 mm 4 mps 743 mmHg 88%
22:00 +11°C° 0.3 mm 3 mps 743 mmHg 89%
23:00 +10°C° 0.1 mm 4 mps 743 mmHg 90%

30 September, Wednesday

Time Temperature Precipitation Wind Pressure Humidity
00:00 +10°C° 0.1 mm 4 mps 742 mmHg 92%
01:00 +10°C° 0.1 mm 4 mps 742 mmHg 93%
02:00 +10°C° 0 mm 4 mps 742 mmHg 93%
03:00 +10°C° 0 mm 4 mps 742 mmHg 94%
04:00 +9°C° 0 mm 5 mps 742 mmHg 94%
05:00 +9°C° 0.1 mm 5 mps 741 mmHg 93%
06:00 +9°C° 0.1 mm 5 mps 741 mmHg 92%
07:00 +10°C° 0.1 mm 5 mps 741 mmHg 90%
08:00 +10°C° 0.1 mm 5 mps 741 mmHg 89%
09:00 +10°C° 0.1 mm 6 mps 740 mmHg 88%
10:00 +11°C° 0.1 mm 6 mps 740 mmHg 86%
11:00 +11°C° 0.5 mm 6 mps 740 mmHg 87%
12:00 +10°C° 0.5 mm 6 mps 740 mmHg 88%
13:00 +10°C° 0.5 mm 6 mps 740 mmHg 88%
14:00 +10°C° 0.5 mm 6 mps 739 mmHg 89%
15:00 +10°C° 0.5 mm 5 mps 739 mmHg 90%
16:00 +10°C° 0.5 mm 5 mps 738 mmHg 91%
17:00 +10°C° 0.9 mm 5 mps 738 mmHg 92%
18:00 +10°C° 0.9 mm 5 mps 738 mmHg 92%
19:00 +10°C° 0.9 mm 5 mps 738 mmHg 93%
20:00 +11°C° 0.5 mm 4 mps 737 mmHg 93%
21:00 +11°C° 0.5 mm 4 mps 737 mmHg 94%
22:00 +11°C° 0.5 mm 3 mps 737 mmHg 94%
23:00 +11°C° 0.1 mm 3 mps 737 mmHg 95%
Show more